Погода в Бухтал

Россия / Тюменская область     57°30′20″N   65°09′49″E
темп.,
°C
ветер,
м/с
пор.,
м/с
влажн.,
%
обл.,
%
осадки,
мм/ч
давл.,
гПа
погр.,
м
12 мая, ср
ср1223:00+14зюз234377 0.0 102544
02:00+14з274116 0.0 1025161
05:00+11с396999 0.0 1026216
08:00+15ссв4753100 0.0 1027611
11:00+19с3532100 0.0 10271251
14:00+21ссз353285 0.0 10271902
17:00+21ссз463354 0.0 10261975
20:00+18с224998 0.0 102633
13 мая, чт
чт1323:00+14з125522 0.0 102511
02:00+13з3963100 0.0 1025184
05:00+12зсз3107485 0.0 1024191
08:00+19сз475552 0.0 1024449
11:00+23сз47405 0.0 10231797
14:00+26ссз593255 0.0 10232807
17:00+23ссв47435 0.0 10241321
20:00+20ссв24565 0.0 102573
14 мая, пт
пт1423:00+16в226536 0.0 102635
02:00+14юв11655 0.0 102711
05:00+13ю22725 0.0 102819
08:00+19ююз34573 0.0 1027377
11:00+25юз354039 0.0 10261384
14:00+28зюз462999 0.0 10232678
17:00+28зсз5724100 0.0 10222819
20:00+23з113993 0.0 102211
15 мая, сб
сб1523:00+20зюз22465 0.0 102116
02:00+17з35544 0.0 102189
05:00+16з386396 0.0 1021135
08:00+21з474844 0.0 1021310
11:00+27з48306 0.0 10201894
14:00+29з6102534 0.0 10182817
17:00+30з5102466 0.0 10173238
20:00+25з373794 0.0 1016146
16 мая, вс
вс1623:00+22з4124298 0.0 1016360
02:00+17сз2563100 0.0 101699
05:00+16зсз397581 0.0 1017231
08:00+21сз47595 0.0 1018691
11:00+25сз35427 0.0 10181421
14:00+28зсз353571 0.0 10172098
17:00+30з363082 0.0 10162545
20:00+25зюз223743 0.0 101522